Dewpoint
41 41 39 39 38 36 35 35 34 31 30 30 30 30 29 29 29 29 28 28 26 26 26 26 25 25 25 25 25 24 24 24 23 23 22 20 19 21 23 25 25 25 29
42 40 39 37 35 35 34 34 33 31 31 30 30 29 30 29 29 28 27 26 25 25 24 23 22 21 21 21 22 21 23 23 23 19 20 19 18 19 21 23 24 22 26
41 40 38 36 34 34 34 33 32 31 30 30 30 30 30 29 28 29 28 26 24 23 22 21 20 20 18 19 20 20 21 23 23 21 19 18 18 19 19 21 22 22 20
41 40 38 35 34 33 33 32 32 31 30 30 30 30 30 29 29 29 26 24 23 22 21 20 19 19 17 17 18 20 20 20 20 20 18 16 16 17 19 19 19 20 19
41 40 39 36 34 33 32 33 33 32 31 31 30 30 29 28 28 28 25 23 21 19 19 17 20 20 18 17 18 19 19 19 18 17 17 14 14 16 16 18 18 19 18
42 40 38 35 34 33 32 32 32 32 32 30 29 30 29 31 32 30 27 25 22 20 22 23 23 25 22 23 24 23 20 19 17 14 15 11 14 16 17 17 17 18 19
41 39 37 34 33 33 32 31 30 28 28 28 29 29 30 31 33 31 29 26 25 24 24 25 23 24 24 22 21 21 21 21 21 16 14 14 15 15 17 15 15 18 16
40 39 36 35 34 33 31 30 29 28 27 28 29 30 30 30 33 32 30 26 23 21 22 20 20 19 21 20 20 19 18 19 19 14 15 11 11 16 18 16 15 18 18
38 37 36 34 32 32 32 31 29 28 28 29 30 29 28 30 33 31 27 24 23 20 19 16 18 17 23 24 16 11 6 10 21 21 20 20 21 21 18 16 12 16 16
37 37 35 34 32 33 33 33 31 30 30 31 30 28 26 29 32 30 26 24 23 23 23 21 21 18 23 24 18 15 12 9 8 9 17 22 22 21 18 13 8 5 5
37 37 35 34 32 33 34 34 33 32 32 31 30 29 27 27 31 30 27 23 23 23 23 23 22 21 22 23 22 19 17 16 13 15 15 10 12 18 17 16 15 11 7
36 37 35 34 32 31 32 34 33 32 31 30 30 29 28 22 28 31 29 25 24 22 22 22 21 24 21 23 22 21 22 16 17 14 12 10 9 8 9 11 16 16 13
34 35 35 34 31 31 33 32 32 31 31 30 29 28 26 24 24 29 30 27 25 22 21 21 24 24 23 20 21 18 14 9 6 5 5 7 10 15 17 17 17 17 19
34 34 34 32 32 33 34 33 32 31 30 30 29 28 26 23 23 25 26 27 27 21 19 22 20 20 10 6 11 14 8 6 8 8 8 8 13 15 15 15 12 15 13
35 35 34 33 31 32 32 32 32 32 31 30 30 29 24 22 22 23 23 23 23 17 9 8 9 4 5 3 4 4 5 9 11 9 9 11 12 14 12 14 14 13 10
34 34 34 34 33 32 32 31 33 32 33 33 32 29 26 26 26 26 25 26 26 22 8 6 5 11 12 9 8 10 12 10 13 14 9 10 10 10 9 9 8 7 6
34 34 34 34 33 32 32 31 30 32 33 33 32 29 28 27 28 28 27 26 26 22 8 12 15 11 9 10 10 9 10 13 13 13 12 8 8 7 4 6 6 5 4
33 33 34 34 33 33 32 32 31 29 29 30 31 30 29 29 29 29 28 27 23 22 17 15 15 14 13 12 11 12 12 11 14 14 12 12 8 8 3 5 7 4 3
33 33 33 33 32 32 32 32 31 30 30 29 27 28 27 29 29 29 29 24 21 21 19 17 17 16 15 14 14 14 15 16 16 15 15 13 12 9 8 11 11 8 5
33 32 32 32 32 32 32 31 30 29 28 26 26 28 29 28 27 27 27 25 22 22 22 21 19 18 17 16 17 17 18 18 17 18 17 17 15 12 13 12 11 9 7
32 32 31 32 32 31 31 30 30 30 28 27 27 26 29 29 29 29 28 27 26 26 26 26 25 23 21 19 19 19 19 19 19 18 18 17 15 12 14 13 12 11 12
33 32 31 31 31 30 30 31 30 29 28 27 25 25 24 27 26 28 29 30 30 30 29 27 26 24 22 21 21 21 21 20 21 20 19 18 16 15 14 13 13 14 13
31 31 31 31 31 30 30 30 29 29 28 29 28 28 25 25 26 26 27 29 29 30 29 27 25 24 23 23 23 22 21 21 21 21 19 19 18 17 16 16 15 14 12
31 29 29 28 28 28 28 28 27 28 27 28 28 28 27 27 27 28 28 28 28 28 28 26 25 24 23 23 23 23 22 22 23 22 21 20 20 19 19 17 16 14 11
27 29 30 28 27 27 27 25 22 20 21 21 19 19 23 26 26 26 26 25 25 24 23 23 23 23 22 22 23 23 24 25 25 25 25 24 23 21 18 16 13 8 5
28 27 27 26 23 22 24 24 16 15 16 13 12 12 15 18 20 20 23 24 25 24 24 23 22 23 23 20 20 21 22 26 27 27 26 23 19 14 12 9 7 5 3
Lifted_Index
1 2 2 2 3 3 3 3 4 5 6 7 9 10 11 11 12 12 12 11 11 12 12 12 12 12 12 11 11 11 11 11 11 12 13 14 15 16 16 16 16 15 15
1 1 1 2 2 3 2 3 4 5 6 7 9 10 11 11 12 12 11 11 11 12 12 12 12 12 12 11 11 11 12 12 12 12 13 14 15 16 16 16 15 16 16
-0 0 1 1 2 2 2 3 4 5 6 8 9 10 11 12 12 12 12 12 12 12 12 12 11 11 11 11 11 11 12 12 12 12 12 13 14 15 15 15 15 15 16
-0 -0 0 1 1 2 2 3 4 5 6 8 9 11 12 12 12 12 12 12 12 12 12 12 11 11 11 11 11 11 11 12 12 11 12 12 13 14 14 14 14 15 15
-0 -0 -0 0 1 1 2 3 4 5 6 8 10 11 12 13 12 12 12 12 12 12 12 12 12 12 12 12 12 12 12 12 11 11 11 12 12 13 13 13 13 13 14
-0 -0 -0 0 1 1 2 3 4 5 6 8 10 12 12 12 13 13 13 13 12 12 12 12 12 12 12 12 12 12 12 12 12 12 12 12 12 12 13 13 13 12 12
-0 -0 0 0 1 1 2 3 3 4 6 8 10 12 12 12 13 13 13 13 13 12 13 13 12 12 12 12 13 13 13 13 13 13 13 13 13 13 14 13 13 13 13
0 0 0 0 1 1 2 3 3 4 6 8 10 12 12 12 13 13 13 13 13 13 13 13 13 12 12 13 13 13 13 14 14 14 14 14 14 15 15 14 14 14 14
0 0 0 0 1 1 2 3 4 5 6 8 10 11 11 12 13 13 13 13 13 14 14 13 13 12 13 13 13 12 13 13 14 15 15 15 16 16 16 15 14 14 13
1 1 1 1 1 2 3 4 4 5 7 9 10 11 12 12 13 14 14 14 14 14 14 14 13 13 13 13 13 13 12 13 14 14 15 15 16 16 17 16 15 14 13
1 1 2 2 3 3 4 4 5 6 7 9 9 10 12 12 13 14 14 14 14 14 14 14 14 14 14 14 14 13 13 14 14 14 14 15 15 16 17 17 17 16 15
2 2 3 3 4 4 5 5 6 6 7 8 9 10 11 12 13 14 14 15 15 15 14 14 14 14 14 14 14 14 14 14 14 14 14 14 15 16 17 18 18 18 18
3 3 4 5 5 5 5 6 6 7 7 8 9 10 11 12 13 14 15 15 16 15 15 15 15 14 14 14 15 15 15 14 14 13 14 14 16 17 18 18 19 19 19
3 4 5 5 5 5 5 6 6 7 7 8 8 9 10 11 13 14 15 15 15 15 15 15 15 14 14 14 14 15 15 15 14 14 14 15 16 17 17 18 18 18 18
4 4 5 5 5 5 6 6 7 7 8 8 9 9 10 11 13 14 14 14 14 14 15 14 14 14 14 14 14 14 15 15 14 14 15 15 16 16 17 18 18 17 16
3 4 5 5 5 5 6 6 7 7 8 9 9 10 11 12 12 13 13 13 13 13 14 13 13 14 14 14 14 14 15 15 15 15 15 15 15 16 16 17 17 16 16
3 4 5 5 5 5 6 6 6 7 8 9 9 10 11 12 12 12 12 12 12 12 12 12 13 13 13 14 14 14 14 15 15 15 15 15 15 15 16 16 16 16 15
4 4 5 5 5 6 6 6 6 7 7 8 9 10 11 11 11 12 12 12 12 11 11 12 12 12 13 13 14 14 14 14 15 15 14 15 15 15 15 16 16 16 15
5 5 6 6 6 6 6 6 6 7 7 7 8 9 10 11 11 11 11 11 11 11 11 11 11 12 12 12 13 13 13 14 14 14 14 15 15 15 15 16 16 16 16
7 7 7 7 7 7 7 7 7 7 7 7 8 9 10 10 10 11 11 11 11 11 11 11 11 12 12 12 12 12 13 13 13 14 14 15 15 15 15 16 16 16 16
7 7 7 7 7 7 7 7 7 7 7 8 8 9 10 10 11 11 11 11 11 11 12 12 11 11 12 12 12 12 13 13 13 14 14 14 14 15 15 15 16 16 16
7 8 8 8 8 8 8 8 8 8 8 8 9 10 10 11 11 11 11 11 11 11 11 11 11 11 11 12 12 12 13 13 13 13 14 14 14 14 14 15 15 15 15
8 8 8 8 8 8 8 8 8 8 9 9 9 10 10 11 11 11 11 11 11 11 11 11 11 11 11 12 12 12 12 13 13 13 13 13 13 13 13 14 14 14 14
8 8 8 8 8 8 8 9 9 9 9 9 10 10 10 10 11 11 11 11 11 11 11 11 11 11 11 11 12 12 12 12 12 12 12 12 12 12 12 12 13 13 13
8 8 8 8 8 8 9 9 9 9 9 10 10 10 10 11 11 11 10 11 11 11 11 11 11 11 11 11 11 11 11 11 11 11 11 11 11 11 11 11 12 12 13
8 8 8 8 8 9 9 9 9 9 9 10 10 10 11 11 11 11 10 11 11 11 11 11 11 11 10 10 10 10 10 10 10 11 10 10 10 10 10 11 11 12 13